Station DTLM4 - 9075099 - De Tour Village, MI Image indicating link to RSS feed of recent meteorological observations for station DTLM4


Conditions at DTLM4 as of
(3:18 am EDT)
0718 GMT on 05/26/2024:
     

Click on the graph icon in the table below to see a time series plot of the last five days of that observation.

5-day plot - Wind Direction Wind Direction (WDIR): S ( 190 deg true )
5-day plot - Wind Speed Wind Speed (WSPD): 2.9 kts
5-day plot - Wind Gust Wind Gust (GST): 5.1 kts
5-day plot - Atmospheric Pressure Atmospheric Pressure (PRES):29.83 in
5-day plot - Air Temperature Air Temperature (ATMP): 52.3 °F
5-day plot - Water Temperature Water Temperature (WTMP): 51.8 °F
5-day plot - Dew Point Dew Point (DEWP): 52.3 °F
5-day plot - Wind Chill Wind Chill (CHILL): 52.0 °F
5-day plot - Wind Speed at 10 Meters Wind Speed at 10 meters (WSPD10M): 3.9 kts
5-day plot - Wind Speed at 20 Meters Wind Speed at 20 meters (WSPD20M): 3.9 kts
5-day plot -  Wind Speed, Wind Gust and Atmospheric Pressure Combined plot of Wind Speed, Gust, and Air Pressure
NOS Water Level Observation Network Water Level
Previous observations
TIME
(EDT)
5-day plot - Wind Direction
WDIR
 
5-day plot - Wind Speed
WSPD
kts
5-day plot - Wind Gust
GST
kts
5-day plot - Wave Height
WVHT
ft
5-day plot - Dominant Wave Period
DPD
sec
5-day plot - Average Wave Period
APD
sec
5-day plot - Mean Wave Direction
MWD
 
5-day plot - Atmospheric Pressure
PRES
in
5-day plot - Pressure Tendency
PTDY
in
5-day plot - Air Temperature
ATMP
°F
5-day plot - Water Temperature
WTMP
°F
5-day plot - Dew Point
DEWP
°F
5-day plot - Salinity
SAL
psu
5-day plot - Visibility
VIS
nmi
5-day plot - Tide (above MLLW)
TIDE
ft
2024-05-26 03:12 am S 2.9 5.1----29.83- 52.0 51.6 52.0---
2024-05-26 03:06 am S 5.1 6.0----29.83- 51.8 51.6 51.8---
2024-05-26 03:00 am S 5.1 6.0----29.83-0.01 51.8 51.6 51.8---
2024-05-26 02:54 am S 5.1 6.0----29.84- 51.6 51.6 51.6---
2024-05-26 02:48 am S 5.1 6.0----29.83- 51.6 51.6 51.6---
2024-05-26 02:42 am S 5.1 6.0----29.83- 51.3 51.6 51.3---
2024-05-26 02:36 am S 5.1 6.0----29.83- 51.4 51.6 51.4---
2024-05-26 02:30 am S 5.1 6.0----29.83- 51.3 51.6 51.3---
2024-05-26 02:24 am S 6.0 7.0----29.83- 51.4 51.6 51.4---
2024-05-26 02:18 am S 6.0 7.0----29.84- 51.3 51.6 51.3---
2024-05-26 02:12 am S 5.1 6.0----29.84- 51.1 51.6 51.1---
2024-05-26 02:06 am S 5.1 5.1----29.84- 51.1 51.6 51.1---
2024-05-26 02:00 am S 4.1 5.1----29.84+0.00 51.1 51.6 51.1---
2024-05-26 01:54 am S 5.1 5.1----29.84- 51.1 51.6 51.1---
2024-05-26 01:48 am S 5.1 7.0----29.84- 51.3 51.6 51.3---
2024-05-26 01:42 am S 5.1 6.0----29.84- 51.3 51.6 51.3---
2024-05-26 01:36 am S 6.0 7.0----29.85- 51.1 51.8 51.1---
2024-05-26 01:30 amSSE 5.1 5.1----29.85- 50.9 51.8 50.9---
2024-05-26 01:24 am S 2.9 4.1----29.85- 50.5 51.8 50.5---
2024-05-26 01:18 am S 2.9 4.1----29.85- 50.5 51.8 50.5---
2024-05-26 01:12 am S 1.9 2.9----29.85- 50.4 51.8 50.4---
2024-05-26 01:06 am S 1.9 2.9----29.85- 50.4 51.8 50.4---
2024-05-26 01:00 am- 0.0 1.0----29.85+0.03 49.5 51.8 49.5---
2024-05-26 12:54 am- 0.0 2.9----29.85- 49.5 51.8 49.5---
2024-05-26 12:48 amSSW 2.9 4.1----29.85- 50.7 51.8 50.7---
2024-05-26 12:42 amSSW 1.9 2.9----29.85- 50.0 51.8 50.0---
2024-05-26 12:36 am SW 1.0 2.9----29.85- 50.4 51.8 50.4---
2024-05-26 12:30 amSSW 2.9 4.1----29.85- 51.6 51.8 51.6---
2024-05-26 12:24 am S 2.9 4.1----29.85- 51.4 51.8 51.4---
2024-05-26 12:18 am S 1.9 2.9----29.85- 51.3 51.8 51.3---
2024-05-26 12:12 am S 1.9 2.9----29.85- 51.3 51.8 51.1---
2024-05-26 12:06 amSSW 1.9 2.9----29.85- 51.8 51.8 51.6---
2024-05-26 12:00 amSSW 1.9 2.9----29.85+0.04 52.2 51.8 51.8---
2024-05-25 11:54 pm S 1.9 2.9----29.85- 52.2 51.8 51.6---
2024-05-25 11:48 pm S 1.9 2.9----29.84- 52.3 51.8 51.8---
2024-05-25 11:42 pm S 1.9 1.9----29.85- 52.7 51.8 51.8---
2024-05-25 11:36 pm- 0.0 1.0----29.85- 52.9 51.8 51.8---
2024-05-25 11:30 pm- 0.0 1.9----29.84- 53.6 51.8 52.5---
2024-05-25 11:24 pm S 1.0 2.9----29.84- 53.1 51.8 52.2---
2024-05-25 11:18 pmSSW 1.9 2.9----29.84- 52.9 51.8 52.2---
2024-05-25 11:12 pmSSW 1.0 1.9----29.84- 53.8 51.8 52.7---
2024-05-25 11:06 pmWSW 1.9 5.1----29.84- 54.9 51.8 52.5---
2024-05-25 11:00 pm W 4.1 5.1----29.84+0.03 55.2 51.8 52.5---
2024-05-25 10:54 pm W 4.1 6.0----29.83- 55.0 51.8 52.7---
2024-05-25 10:48 pm W 5.1 6.0----29.83- 54.7 51.8 52.7---
2024-05-25 10:42 pm W 5.1 5.1----29.83- 54.5 51.8 52.9---
2024-05-25 10:36 pm W 5.1 6.0----29.83- 54.5 51.8 52.9---
2024-05-25 10:30 pm W 5.1 6.0----29.83- 54.3 51.8 53.1---
2024-05-25 10:24 pm W 5.1 7.0----29.83- 54.1 51.8 52.9---
2024-05-25 10:18 pm W 5.1 6.0----29.83- 54.5 51.8 53.4---
2024-05-25 10:12 pm W 5.1 6.0----29.83- 54.3 51.8 53.4---
2024-05-25 10:06 pm W 5.1 6.0----29.83- 54.3 51.8 53.6---
2024-05-25 10:00 pmWSW 4.1 5.1----29.83+0.03 54.3 51.8 53.4---
2024-05-25 09:54 pmWSW 2.9 7.0----29.82- 55.2 51.8 53.6---
2024-05-25 09:48 pm S 2.9 5.1----29.81- 55.6 51.8 54.0---
2024-05-25 09:42 pm SW 1.9 2.9----29.81- 56.3 51.8 54.5---
2024-05-25 09:36 pmSSW 4.1 5.1----29.81- 56.1 51.8 54.5---
2024-05-25 09:30 pm S 5.1 5.1----29.80- 55.6 51.8 54.3---
2024-05-25 09:24 pm S 2.9 4.1----29.80- 57.0 51.8 54.3---
2024-05-25 09:18 pm- 0.0 1.9----29.80- 57.4 51.8 54.5---
2024-05-25 09:12 pm S 1.9 4.1----29.80- 57.4 51.8 54.3---
2024-05-25 09:06 pm S 2.9 4.1----29.80- 59.5 51.8 54.0---
2024-05-25 09:00 pm SW 1.9 1.9----29.80- 60.3 51.8 54.0---
2024-05-25 08:54 pmWSW 1.9 2.9----29.80- 60.4 51.8 54.5---
2024-05-25 08:48 pmWSW 1.9 2.9----29.80- 60.6 51.8 54.3---
2024-05-25 08:42 pmWSW 1.0 2.9----29.80- 61.0 51.8 54.7---
2024-05-25 08:36 pmWSW 1.9 4.1----29.80- 61.2 51.8 54.5---
2024-05-25 08:30 pmWSW 1.9 4.1----29.80- 61.5 51.8 54.3---
2024-05-25 08:24 pm SW 1.9 5.1----29.80- 61.9 51.8 54.5---
2024-05-25 08:18 pm W 2.9 5.1----29.80- 61.9 51.8 54.3---
2024-05-25 08:12 pm W 2.9 6.0----29.81- 61.7 51.8 54.5---
2024-05-25 08:06 pm W 4.1 8.0----29.80- 61.7 51.8 54.5---
2024-05-25 08:00 pm W 5.1 7.0----29.80+0.03 61.5 51.8 54.3---
2024-05-25 07:54 pm W 5.1 8.9----29.80- 61.3 51.8 54.5---
2024-05-25 07:48 pm-------29.80- 61.2 51.8 54.3---
2024-05-25 07:42 pm-------29.80- 61.3 51.8 54.3---
2024-05-25 07:36 pm-------29.80- 61.5 51.8 54.3---
2024-05-25 07:30 pm W 7.0 11.1----29.80-- 51.8----
2024-05-25 07:24 pmWSW 8.0 12.0----29.80-- 51.8----
2024-05-25 07:18 pmWSW 8.9 12.0----29.80- 61.7 51.8 53.6---
2024-05-25 07:12 pmWSW 5.1 8.0----29.80- 63.0 51.8 50.7---
2024-05-25 07:06 pm NW 5.1 8.0----29.80- 63.7 51.8----
2024-05-25 07:00 pmNNW 1.9 7.0----29.80+0.02 63.9 51.8----
2024-05-25 06:54 pmNNW 1.9 6.0----29.79- 62.8 51.8----
2024-05-25 06:48 pmNNW 5.1 8.9----29.79-- 51.8----
2024-05-25 06:42 pmENE 1.9 5.1----29.79-- 51.8----
2024-05-25 06:36 pmESE 1.9 7.0----29.78-- 51.8----
2024-05-25 06:30 pm S 4.1 6.0----29.78- 60.1 51.8 53.6---
2024-05-25 06:24 pm S 5.1 6.0----29.78- 58.8 51.8 54.9---
2024-05-25 06:18 pm S 5.1 6.0----29.78- 57.9 51.6 55.0---
2024-05-25 06:12 pmSSE 4.1 6.0----29.78- 57.0 51.6 54.7---
2024-05-25 06:06 pmSSE 6.0 7.0----29.78- 57.0 51.8 54.5---
2024-05-25 06:00 pm S 6.0 8.0------ 57.2 51.8 53.2---
2024-05-25 05:54 pmNNW 2.9 6.0------ 60.8 51.8 51.8---
2024-05-25 05:48 pm N 4.1 8.9----29.78-- 51.8----
2024-05-25 05:42 pm N 8.9 9.9----29.78-- 51.8----
2024-05-25 05:36 pm N 8.9 11.1----29.78-- 51.8----
2024-05-25 05:30 pm N 8.9 11.1----29.78- 58.3- 54.3---
2024-05-25 05:24 pm N 9.9 11.1----29.78- 57.7- 54.1---
2024-05-25 05:18 pm N 8.9 11.1----29.78- 57.6 51.6 54.0---
2024-05-25 05:12 pm N 9.9 12.0----29.78- 57.9 51.8 54.5---
2024-05-25 05:06 pm N 11.1 13.0----29.78- 57.6 51.8 54.5---
2024-05-25 05:00 pm N 11.1 13.0----29.78+0.04 57.6 51.6 55.0---
2024-05-25 04:54 pm N 12.0 14.0----29.78- 56.8 51.6 55.0---
2024-05-25 04:48 pm N 12.0 14.0----29.78-- 51.8----
2024-05-25 04:42 pm N 8.9 11.1----29.78-- 51.8----
2024-05-25 04:36 pm N 8.9 11.1----29.78-- 51.8----
2024-05-25 04:30 pm N 11.1 12.0----29.78- 55.6 51.8 55.6---
2024-05-25 04:24 pm N 9.9 12.0----29.78- 56.1 51.8 55.8---
2024-05-25 04:18 pmNNW 8.0 13.0----29.78- 57.0 51.8 56.5---
2024-05-25 04:12 pm NW 7.0 12.0----29.78- 56.8 51.6 56.8---
2024-05-25 04:06 pm N 8.0 11.1----29.78- 56.1 51.8 56.1---
2024-05-25 04:00 pm-------29.77+0.05 56.5 51.8 56.5---
2024-05-25 03:54 pm-------29.77- 56.7 51.6 56.3---
2024-05-25 03:48 pm N 14.0 15.9----29.76- 56.3 51.6 56.3---
2024-05-25 03:42 pm N 11.1 14.0----29.76- 56.1 51.8 56.1---
2024-05-25 03:36 pm N 8.0 9.9----29.76- 56.1 51.6 55.9---
2024-05-25 03:30 pmNNE 7.0 8.9----29.76-- 51.8----
2024-05-25 03:24 pm NE 5.1 5.1----29.76-- 51.6----
2024-05-25 03:18 pmNNE 4.1 6.0----29.75- 56.1 51.6 55.6---
2024-05-25 03:12 pm NE 2.9 2.9----29.76- 56.1 51.8 55.6---
2024-05-25 03:06 pmENE 1.0 2.9----29.75- 56.5 51.8 56.1---
2024-05-25 03:00 pmNNE 2.9 4.1----29.75+0.05 56.3 51.8 55.6---
2024-05-25 02:54 pm S 1.0 4.1----29.75- 57.0 51.8 57.0---
2024-05-25 02:48 pmSSW 4.1 5.1----29.75- 56.1 51.8 55.9---
2024-05-25 02:42 pm SW 2.9 4.1----29.75- 56.3 51.8 56.3---
2024-05-25 02:36 pm S 2.9 5.1----29.74- 55.8 51.8 55.8---
2024-05-25 02:30 pm S 5.1 8.0----29.74- 55.4 51.8 55.4---
2024-05-25 02:24 pm S 7.0 8.0----29.74- 54.9 51.8 54.9---
2024-05-25 02:18 pm S 6.0 8.0----29.74- 54.3 51.8 54.3---
2024-05-25 02:12 pm S 6.0 8.0----29.74- 54.1 51.8 54.1---
2024-05-25 02:06 pm S 8.9 9.9----29.74- 52.2 51.8 52.2---
2024-05-25 02:00 pm S 8.9 9.9----29.73+0.04 51.8 51.8 51.8---
2024-05-25 01:54 pm S 8.0 8.0----29.73- 52.2 51.6 52.2---
2024-05-25 01:48 pmSSE 6.0 7.0----29.73-- 51.6----
2024-05-25 01:42 pmSSE 5.1 7.0----29.73-- 51.6----
2024-05-25 01:36 pmSSE 6.0 7.0----29.73-- 51.6----
2024-05-25 01:30 pm S 6.0 7.0----29.73- 51.1 51.6 51.1---
2024-05-25 01:24 pm S 5.1 8.0----29.73- 51.1 51.6 51.1---
2024-05-25 01:18 pm S 6.0 8.0----29.73- 51.1 51.6 51.1---
2024-05-25 01:12 pm S 7.0 8.9----29.73- 51.6 51.6 51.6---
2024-05-25 01:06 pmSSW 6.0 8.9----29.72- 52.2 51.6 52.2---
2024-05-25 01:00 pm S 6.0 8.0----29.72+0.02 52.9 51.6 52.9---
2024-05-25 12:54 pm S 6.0 8.0----29.72- 53.1 51.8 53.1---
2024-05-25 12:48 pm S 6.0 8.0----29.72- 53.2 51.8 53.2---
2024-05-25 12:42 pmSSE 6.0 8.0----29.72- 53.6 51.8 53.6---
2024-05-25 12:36 pmSSE 5.1 8.0----29.72- 53.6 51.8 53.6---
2024-05-25 12:30 pm-------29.72- 53.4 51.8 53.4---
2024-05-25 12:24 pm-------29.72- 53.4 51.8 53.4---
2024-05-25 12:18 pm SE 8.9 9.9----29.71- 53.1 51.8 53.1---
2024-05-25 12:12 pmSSE 7.0 8.9----29.71- 53.4 51.8 53.4---
2024-05-25 12:06 pmSSE 5.1 8.0----29.71- 52.9 51.8 52.9---
2024-05-25 12:00 pmSSE 6.0 8.0----29.70-0.01 52.9 51.8 52.9---
2024-05-25 11:54 am S 4.1 7.0----29.70- 52.7 51.8 52.7---
2024-05-25 11:48 am S 4.1 5.1----29.70-- 51.8----
2024-05-25 11:42 amSSE 5.1 8.9----29.70-- 51.8----
2024-05-25 11:36 am SE 6.0 9.9----29.70-- 51.8----
2024-05-25 11:30 am S 9.9 15.0----29.70- 53.2 51.8 53.2---
2024-05-25 11:24 am SE 7.0 14.0----29.70- 52.3 51.8 52.3---
2024-05-25 11:18 am SE 8.9 15.0----29.70- 52.3 51.8 52.3---
2024-05-25 11:12 amESE 13.0 17.1----29.69- 51.4 51.8 51.4---
2024-05-25 11:06 am SE 8.0 12.0----29.70- 52.0 51.8 52.0---
2024-05-25 11:00 am SE 9.9 13.0----29.70-0.03 51.8 51.8 51.8---
2024-05-25 10:54 am SE 9.9 13.0----29.70- 51.6 51.8 51.6---
2024-05-25 10:48 am SE 8.0 12.0----29.70- 51.4 51.8 51.4---
2024-05-25 10:42 am SE 9.9 13.0----29.70- 51.6 51.8 51.6---
2024-05-25 10:36 am SE 11.1 13.0----29.70- 51.3 51.8 51.3---
2024-05-25 10:30 am SE 8.9 13.0----29.70- 51.3 51.8 51.3---
2024-05-25 10:24 am SE 9.9 13.0----29.70- 51.3 51.8 51.3---
2024-05-25 10:18 am SE 13.0 15.9----29.70- 50.9 51.8 50.9---
2024-05-25 10:12 am SE 13.0 17.1----29.70- 50.9 51.8 50.9---
2024-05-25 10:06 am SE 15.0 18.1----29.70- 50.9 51.8 50.9---
2024-05-25 10:00 am SE 15.0 20.0----29.70+0.01- 51.8----
2024-05-25 09:54 am SE 17.1 19.0----29.70-- 51.8----
2024-05-25 09:48 am SE 15.9 17.1----29.70-- 51.8----
2024-05-25 09:42 am SE 15.0 17.1----29.70-- 51.8----
2024-05-25 09:36 am SE 14.0 17.1----29.71-- 51.8----
2024-05-25 09:30 am SE 13.0 17.1----29.71- 50.7 51.8 50.7---
2024-05-25 09:24 amSSE 8.9 17.1----29.72- 50.9 51.8 50.9---
2024-05-25 09:18 amSSE 8.0 12.0----29.71- 50.7 51.8 50.7---
2024-05-25 09:12 amSSE 8.0 11.1----29.72- 50.9 51.8 50.9---
2024-05-25 09:06 am S 6.0 9.9----29.72- 50.9 51.8 50.9---
2024-05-25 09:00 amSSE 7.0 13.0----29.71+0.02 50.7 51.8 50.7---
2024-05-25 08:54 am SE 6.0 11.1----29.71- 50.4 51.8 50.4---
2024-05-25 08:48 am SE 6.0 14.0----29.71-- 51.8----
2024-05-25 08:42 am SE 7.0 12.0----29.70-- 51.8----
2024-05-25 08:36 am SE 9.9 14.0----29.70-- 51.8----
2024-05-25 08:30 am SE 8.9 15.0----29.71- 50.2 51.8 50.2---
2024-05-25 08:24 am SE 12.0 20.0----29.70- 50.2 51.8 50.2---
2024-05-25 08:18 am SE 14.0 19.0----29.70- 50.2 51.8 50.2---
2024-05-25 08:12 amSSE 11.1 15.9----29.72- 50.7 51.8 50.4---
2024-05-25 08:06 amSSE 13.0 15.9----29.73- 50.7 51.8 49.5---
2024-05-25 08:00 amSSE 9.9 14.0----29.73+0.03 51.3 51.8 49.6---
2024-05-25 07:54 amSSE 9.9 14.0----29.72- 51.4 51.8 49.8---
2024-05-25 07:48 amSSE 9.9 14.0----29.72- 51.4 51.8 49.6---
2024-05-25 07:42 amSSE 11.1 15.0----29.71- 51.6 51.8 49.8---
2024-05-25 07:36 amSSE 9.9 17.1----29.71- 51.6 51.8 49.6---
2024-05-25 07:30 amSSE 12.0 17.1----29.70- 51.6 51.8 49.5---
2024-05-25 07:24 am SE 13.0 17.1----29.70- 51.6 51.8 49.5---
2024-05-25 07:18 am SE 17.1 22.9----29.70- 51.8 51.8 49.8---
2024-05-25 07:12 am SE 17.1 22.0----29.69- 51.8 51.8 49.8---
2024-05-25 07:06 am SE 17.1 22.0----29.69- 51.8 51.8 49.6---
2024-05-25 07:00 am SE 19.0 25.1----29.69-0.03 51.8 51.8 49.5---
2024-05-25 06:54 am SE 19.0 22.9----29.69- 51.8 51.8 49.6---
2024-05-25 06:48 am SE 18.1 24.1----29.69- 51.6 51.8 49.6---
2024-05-25 06:42 amSSE 15.9 21.0----29.70- 51.4 51.8 49.6---
2024-05-25 06:36 amSSE 13.0 20.0----29.70- 51.3 51.8 49.6---
2024-05-25 06:30 am-------29.70- 51.4 51.8 49.6---
2024-05-25 06:24 am-------29.70- 51.4 51.8 49.6---
2024-05-25 06:18 amSSE 19.0 22.9----29.69- 51.6 51.8 49.5---
2024-05-25 06:12 am SE 20.0 25.1----29.69- 52.0 51.8 49.6---
2024-05-25 06:06 am SE 19.0 25.1----29.69- 52.3 51.8 49.6---
2024-05-25 06:00 am SE 20.0 26.0----29.69-0.04- 51.8----
2024-05-25 05:54 am SE 21.0 27.0----29.69-- 51.8----
2024-05-25 05:48 am SE 22.9 29.9----29.68- 52.7 51.8----
2024-05-25 05:42 am SE 18.1 27.0----29.68- 52.5 51.8----
2024-05-25 05:36 am SE 20.0 28.9----29.68- 52.7 51.8----
2024-05-25 05:30 am SE 22.9 27.0------ 52.5 51.8 48.9---
2024-05-25 05:24 am SE 22.0 29.9------ 52.3 51.8 48.9---
2024-05-25 05:18 am SE 22.9 27.0----29.69- 52.3 51.8 49.3---
2024-05-25 05:12 am SE 22.9 28.9----29.69- 52.3 51.8 49.5---
2024-05-25 05:06 am SE 21.0 28.0----29.69- 52.3 51.8 49.5---
2024-05-25 05:00 am SE 22.9 28.9----29.70-0.07- 51.8----
2024-05-25 04:54 am SE 24.1 28.9----29.70-- 51.8----
2024-05-25 04:48 am SE 17.1 24.1----29.70-- 51.8----
2024-05-25 04:42 am SE 20.0 29.9----29.70-- 51.6----
2024-05-25 04:36 am SE 19.0 26.0----29.70-- 51.6----
2024-05-25 04:30 am SE 19.0 24.1----29.70- 52.2- 49.1---
2024-05-25 04:24 am SE 19.0 24.1----29.71- 52.2- 49.5---
2024-05-25 04:18 am SE 20.0 26.0----29.71-------
2024-05-25 04:12 am SE 17.1 24.1----29.72-------
2024-05-25 04:06 am SE 19.0 22.9----29.72-------
2024-05-25 04:00 am SE 15.0 21.0----29.72-0.06 52.5 51.6 48.9---
2024-05-25 03:54 am SE 15.0 19.0----29.71- 53.1 51.6 48.2---
2024-05-25 03:48 am SE 17.1 21.0----29.72- 53.1 51.6 48.7---
2024-05-25 03:42 am SE 14.0 18.1----29.71- 52.5 51.6 49.3---
2024-05-25 03:36 amESE 13.0 19.0----29.72- 52.2 51.6 49.3---
2024-05-25 03:30 amESE 15.0 19.0----29.72- 52.3 51.6 49.3---
2024-05-25 03:24 amESE 15.0 19.0----29.72- 52.2 51.6 49.5---
2024-05-25 03:18 amESE 15.0 20.0----29.72- 52.2 51.6 49.8---
2024-05-25 03:12 amESE 14.0 19.0----29.72- 52.2 51.6 50.0---
2024-05-25 03:06 am E 14.0 19.0----29.72- 51.6 51.6 50.2---
2024-05-25 03:00 amESE 14.0 17.1----29.73-0.08- 51.6----
2024-05-25 02:54 amESE 13.0 17.1----29.74-- 51.6----